Regional Weather Roundup
Issued by NWS Newport/Morehead, NC

Current Version | Previous Version | Graphics & Text | Print | Product List | Glossary On
Versions: 1 2 3 4 5 6 7 8 9 10 11 12 13 14 15 16 17 18 19 20 21 22 23 24 25 26 27 28 29 30 31 32 33 34 35 36 37 38 39 40 41 42 43 44 45 46 47 48 49 50
000 ASUS42 KMHX 290113 RWRMHX WEATHER ROUNDUP FOR EASTERN NORTH CAROLINA NATIONAL WEATHER SERVICE NEWPORT/MOREHEAD CITY NC 900 PM EDT THU JUL 28 2016 NOTE: "FAIR" INDICATES FEW OR NO CLOUDS BELOW 12,000 FEET WITH NO SIGNIFICANT WEATHER AND/OR OBSTRUCTIONS TO VISIBILITY NCZ015>017-031-032-045>047-102-103-290200- NORTH COAST CITY SKY/WX TMP DP RH WIND PRES REMARKS EDENTON CLEAR 90 75 61 S7 29.84R HX 101 ELIZABETH CITY CLEAR 87 78 74 S6 29.84R HX 100 KITTY HAWK CLEAR 88 74 62 SW6 29.84R MANTEO N/A 88 79 74 SW12 29.85S HX 103 $$ NCZ045>047-081-094-103-104-290200- CENTRAL COAST CITY SKY/WX TMP DP RH WIND PRES REMARKS FRISCO CLEAR 83 78 85 SW13G20 29.87R $$ NCZ095-097-098-100-101-290200- SOUTHERN COAST CITY SKY/WX TMP DP RH WIND PRES REMARKS BEAUFORT CLEAR 85 79 82 SW15G24 29.88R CEDAR ISLAND NOT AVBL JACKSONVILLE CLEAR 86 73 65 SW7 29.88R PINEY ISLAND NOT AVBL WILMINGTON CLEAR 85 74 69 SW13G23 29.89S $$ NCZ011>013-027>030-043-044-078>080-089-090>093-098-290200- COASTAL PLAIN CITY SKY/WX TMP DP RH WIND PRES REMARKS AHOSKIE CLEAR 83 76 80 S3 29.83R CLINTON CLEAR 88 73 62 CALM 29.87R ELIZABETHTOWN CLEAR 89 72 57 S3 29.88S GOLDSBORO CLEAR 89 71 54 SW9 29.84 GREENVILLE CLEAR 90 72 55 SW9 29.86R HAVELOCK CLEAR 84 76 76 SW13 29.88R KENANSVILLE NOT AVBL KINSTON CLEAR 88 70 55 SW7 29.86R NEW BERN PTCLDY 84 76 76 S7 29.88R RICHLANDS CLEAR 85 76 74 S8 29.88R ROCKY MOUNT CLEAR 87 73 62 S9 29.84R WASHINGTON CLEAR 88 74 64 S6 29.83S WHITEVILLE CLEAR 87 76 71 S6 29.89R $$ AMZ130-135-150-152-154-156-158-170-250-252-270-ANZ085-086-088-633-658-670-290200- MARINE OBSERVATIONS STATION/POSITION TIME TEMP WIND PRES WAVE SWELL AIR SEA DIR/SP/G HT/PER HT/PER (UTC) (F) (DEG/KT/KT) (MB) (FT/S) (FT/S) CHESAPEAKE LIGHT NOT AVBL 64 E VA BEACH 0050 84 82 190/ 14/ 16 1010.3 3/ 4 2/ 8 DUCK 0000 91 74 N/A 2 E DUCK 0011 79 N/A 1/ 8 OREGON INLET 0000 84 82 N/A 13E OREGON INLT 0100 82 N/A 2/ 4 2/ 8 HATTERAS CG 0000 83 84 N/A DIAMOND BUOY 0050 86 85 230/ 19/ 21 1011.5 3/ 4 2/ 7 CAPE LOOKOUT 0100 85 220/ 11/ 14 1011.8 BEAUFORT LAB 0000 85 84 N/A 30 SE NEW RVR IN 0008 86 85 220/ 19/ 25 1011.9 30 SE NEW RVR IN 0025 85 N/A 5/ 5 27 SE WRIGHTSVLE 0008 85 85 220/ 17/ 23 1012.6 5 SE WRIGHTSVLE 0008 83 80 230/ 14/ 19 1012.8 225 S CAPE HAT 0050 84 85 240/ 8/ 10 1015.3 3/ 6 3/ 6 41 SE CHARLESTON 0050 86 86 200/ 17/ 19 1013.5 3/ 4 2/ 8 $$

USA.gov is the U.S. government's official web portal to all federal, state and local government web resources and services.